[[{"header":{"parameterUnit":"m.s-1","parameterCategory":1,"la1":30.2991,"la2":30.254,"lo1":-89.0895,"lo2":-89.0444,"dy":0.0017,"dx":0.0017,"nx":28,"ny":28,"refTime":"2025-03-09T09:00:00:Z","depth":0,"parameterNumber":2,"parameterNumberName":"U-component_of_WINDS"},"data":[0,0,0,0,0,0,0,0,0,0,0,0,0,0,0,0,0,0,0,0,0,0,0,0,0,0,0,0,0,0,0,0,0,0,0,0,0,0,0,0,0,0,0,0,0,0,0,0,0,0,0,0,0,0,0,0,0,0,4.7129,4.713,0,4.7236,4.7237,4.7238,4.719,4.7187,4.7184,4.7182,4.7292,4.7297,4.7302,0,0,0,0,0,0,0,0,0,0,0,0,0,4.6887,4.6892,4.7129,4.713,4.7132,4.7235,4.7237,4.7238,4.719,4.7187,4.7184,4.7181,4.729,4.7296,4.7303,0,0,0,0,0,0,0,0,0,0,0,0,0,4.6993,4.6893,4.7129,4.712,4.712,4.7235,4.7237,4.7239,4.7191,4.7187,4.7183,4.7179,4.7288,4.7296,4.7304,4.7433,0,0,4.7329,4.7332,0,0,0,0,0,0,0,0,4.6987,4.7002,4.712,4.7121,4.7121,4.7195,4.7192,4.7304,4.7192,4.7164,4.7182,4.7177,4.7263,4.7273,4.7302,4.7439,4.7443,4.7329,4.7334,4.7338,4.734,0,0,0,0,0,0,0,4.698,4.6997,4.7171,4.7122,4.7123,4.7112,4.7123,4.7213,4.7235,4.7166,4.7163,4.7176,4.7263,4.7294,4.7304,4.7445,4.7329,4.7336,4.7341,4.7344,4.7698,4.7702,0,0,0,0,0,0,4.6972,4.6991,4.7168,4.7174,4.7043,4.712,4.7131,4.7176,4.7233,4.7238,4.7179,4.7174,4.7282,4.7294,4.7307,4.7466,4.7338,4.7345,4.735,4.7694,4.7699,4.7704,0,0,0,0,0,0,4.6967,4.6988,4.7163,4.7082,4.7103,4.7128,4.7178,4.718,4.7211,4.7243,4.7247,4.7207,4.7279,4.7296,4.7403,4.7469,4.7349,4.7356,4.7688,4.7695,4.7701,4.7782,0,0,0,0,0,0,4.696,4.6987,4.7035,4.7083,4.7108,4.7257,4.7182,4.7185,4.7225,4.7218,4.7271,4.7275,4.7278,4.7392,4.7411,4.7478,4.7362,4.7682,4.7691,4.7699,4.7773,4.779,4.7805,0,0,0,0,0,4.6952,4.7053,4.7038,4.706,4.7169,4.726,4.7275,4.7275,4.723,4.728,4.7302,4.7274,4.7458,4.7403,4.7425,4.7495,4.7678,4.7689,4.7699,4.7766,4.7787,4.7805,0,0,0,0,0,0,4.7011,4.7059,4.7043,4.7162,4.7208,4.7252,4.7315,4.7296,4.7355,4.7346,4.7344,4.7357,4.7469,4.7492,4.7429,4.7625,4.7562,4.7577,4.7606,4.7626,4.7641,4.7634,4.7369,0,0,0,0,0,4.7038,4.7108,4.7146,4.7248,4.7272,4.729,4.7329,4.7326,4.7373,4.7392,4.7421,4.7468,4.7538,4.7583,4.7648,4.7777,4.7789,4.7836,4.7852,4.7865,4.7878,4.7951,4.7974,4.7737,4.7737,4.7737,0,0,4.7095,4.7129,4.7173,4.7261,4.7296,4.7369,4.7306,4.7385,4.7441,4.7404,4.7508,4.7531,4.7584,4.7704,4.7758,4.7727,4.7946,4.7878,4.7888,4.7894,4.7964,4.7987,4.8006,4.7744,4.7743,4.7742,0,0,4.7235,4.7268,4.7358,4.7395,4.7449,4.746,4.7482,4.753,4.7545,4.7649,4.7624,4.769,4.7808,4.7848,4.7884,4.8044,4.8022,4.8065,4.8148,4.822,4.8239,4.8255,4.8315,4.8336,4.8078,4.8079,4.8079,0,4.7299,4.7408,4.7406,4.7489,4.753,4.7501,4.7593,4.7629,4.7702,4.7731,4.7695,4.7846,4.7879,4.8009,4.8049,4.8078,4.8105,4.8059,4.8236,4.8253,4.8268,4.8325,4.8347,4.8084,4.8083,4.8083,4.8082,0,4.7484,4.7561,4.7627,4.7699,4.7747,4.7834,4.7848,4.7897,4.789,4.7906,4.8015,4.8054,4.8129,4.8159,4.8153,4.829,4.827,4.8235,4.8171,4.8296,4.8349,4.8371,4.8091,4.8089,4.8088,4.8086,0,0,4.7663,4.7736,4.776,4.7794,4.7854,4.7913,4.8001,4.8074,4.8117,4.8169,4.8244,4.8346,4.8316,4.8357,4.8355,4.8418,4.8546,4.8376,4.8378,4.8408,4.8703,4.873,4.8755,4.8532,4.8536,4.8539,4.87,0,4.781,4.7962,4.7965,4.8106,4.8179,4.8154,4.8231,4.8276,4.8295,4.836,4.838,4.8454,4.8407,4.8432,4.8493,4.8517,4.8606,4.8506,4.8603,4.8606,4.8592,4.8782,4.881,4.8959,4.872,4.8724,4.8726,0,4.8001,4.8061,4.8209,4.8261,4.8291,4.836,4.8429,4.8491,4.8544,4.8553,4.8601,4.859,4.8682,4.8615,4.8743,4.8675,4.8715,4.8734,4.874,4.8749,4.8674,4.8799,4.9007,4.903,4.8759,4.8756,4.8754,0,4.812,4.8237,4.8342,4.8371,4.8434,4.8483,4.8512,4.856,4.8605,4.8666,4.8696,4.8766,4.8805,4.8861,4.8872,4.8822,4.9001,4.8934,4.9013,4.9013,4.9052,4.9049,4.927,4.9076,4.9075,4.9075,4.9074,0,4.8284,4.8376,4.8396,4.8461,4.8564,4.8568,4.8671,4.8696,4.874,4.881,4.8793,4.886,4.8869,4.8938,4.8947,4.9053,4.907,4.9082,4.9083,4.9084,4.9083,4.9111,4.9102,4.9081,4.9079,4.9078,4.9077,0,4.8434,4.8451,4.8564,4.8615,4.863,4.8705,4.8749,4.8812,4.8829,4.8919,4.894,4.8969,4.905,4.9066,4.9162,4.9168,4.9295,4.9285,4.9278,4.9277,4.9356,4.9349,4.9603,4.9638,4.9419,4.9421,4.9423,0,4.8538,4.8609,4.8668,4.8714,4.8746,4.882,4.8866,4.8873,4.8923,4.899,4.9046,4.9126,4.919,4.9322,4.9352,4.9426,4.9419,4.9503,4.943,4.943,4.9423,4.9419,4.9428,4.9517,4.952,4.9522,4.9523,0,4.8722,4.8728,4.8795,4.8867,4.8923,4.898,4.9033,4.9073,4.9087,4.9144,4.9228,4.9278,4.9377,4.9458,4.9533,4.9563,4.9548,4.9546,4.9569,4.9571,4.9565,4.9572,4.9318,4.954,4.9539,4.9537,4.9536,4.9536,4.8854,4.8917,4.897,4.9046,4.9088,4.914,4.9202,4.9229,4.9298,4.938,4.938,4.9472,4.9527,4.9626,4.9662,4.9735,4.9709,4.9741,4.9749,4.9757,4.9766,4.9552,4.9749,4.9748,4.9748,4.9747,4.9747,0,4.9039,4.9072,4.9143,4.922,4.9281,4.926,4.932,4.9373,4.9454,4.9506,4.957,4.9668,4.9747,4.9784,4.9863,4.9915,4.991,4.9935,4.9932,4.994,4.9784,4.9758,4.9939,4.9938,4.9938,4.9938,4.9938,4.9938,4.9143,4.9249,4.9262,4.939,4.9423,4.9513,4.955,4.9598,4.964,4.975,4.9816,4.9839,4.9887,4.9969,5.0042,5.0051,5.0081,5.0111,5.0117,4.997,4.9951,4.9932,4.9908,5.0117,5.0118,5.0268,5.0269,5.027]},{"header":{"parameterUnit":"m.s-1","parameterCategory":1,"la1":30.2991,"la2":30.254,"lo1":-89.0895,"lo2":-89.0444,"dy":0.0017,"dx":0.0017,"nx":28,"ny":28,"refTime":"2025-03-09T09:00:00:Z","depth":0,"parameterNumber":3,"parameterNumberName":"V-component_of_WINDS"},"data":[0,0,0,0,0,0,0,0,0,0,0,0,0,0,0,0,0,0,0,0,0,0,0,0,0,0,0,0,0,0,0,0,0,0,0,0,0,0,0,0,0,0,0,0,0,0,0,0,0,0,0,0,0,0,0,0,0,0,-5.5175,-5.5176,0,-5.5308,-5.5309,-5.5311,-5.5309,-5.5307,-5.5305,-5.5304,-5.5435,-5.544,-5.5445,0,0,0,0,0,0,0,0,0,0,0,0,0,-5.4915,-5.492,-5.5175,-5.5176,-5.5178,-5.5308,-5.531,-5.5311,-5.5309,-5.5307,-5.5305,-5.5303,-5.5433,-5.5439,-5.5445,0,0,0,0,0,0,0,0,0,0,0,0,0,-5.5036,-5.4921,-5.5174,-5.5193,-5.5196,-5.5307,-5.531,-5.5312,-5.531,-5.5307,-5.5304,-5.5302,-5.5431,-5.5438,-5.5446,-5.5547,0,0,-5.547,-5.5473,0,0,0,0,0,0,0,0,-5.5029,-5.5045,-5.5188,-5.5192,-5.5195,-5.5289,-5.5266,-5.539,-5.531,-5.5266,-5.5304,-5.5301,-5.5388,-5.5399,-5.543,-5.5553,-5.5558,-5.547,-5.5475,-5.5478,-5.548,0,0,0,0,0,0,0,-5.5021,-5.504,-5.5227,-5.5191,-5.5195,-5.5193,-5.5207,-5.529,-5.534,-5.527,-5.527,-5.5286,-5.5389,-5.5422,-5.5433,-5.556,-5.547,-5.5477,-5.5482,-5.5485,-5.5774,-5.5777,0,0,0,0,0,0,-5.5009,-5.5033,-5.5223,-5.5231,-5.5104,-5.52,-5.5216,-5.5262,-5.5339,-5.5349,-5.5288,-5.5286,-5.541,-5.5424,-5.5437,-5.5562,-5.5478,-5.5485,-5.549,-5.5771,-5.5774,-5.5778,0,0,0,0,0,0,-5.5004,-5.5026,-5.5218,-5.5132,-5.5157,-5.5207,-5.5259,-5.5266,-5.5299,-5.5353,-5.5362,-5.5313,-5.5409,-5.5427,-5.552,-5.5566,-5.5489,-5.5496,-5.5767,-5.5772,-5.5776,-5.581,0,0,0,0,0,0,-5.4996,-5.5024,-5.5064,-5.5133,-5.5161,-5.53,-5.5262,-5.527,-5.5313,-5.531,-5.5379,-5.5387,-5.5408,-5.5509,-5.5528,-5.5575,-5.5502,-5.5763,-5.5769,-5.5775,-5.5805,-5.5815,-5.5823,0,0,0,0,0,-5.4987,-5.5066,-5.5066,-5.5089,-5.5212,-5.5302,-5.5318,-5.5342,-5.5316,-5.5356,-5.5391,-5.5385,-5.5558,-5.5518,-5.554,-5.559,-5.576,-5.5768,-5.5774,-5.58,-5.5813,-5.5823,0,0,0,0,0,0,-5.4998,-5.5076,-5.5076,-5.518,-5.5235,-5.5302,-5.5353,-5.5354,-5.5415,-5.5411,-5.5436,-5.5451,-5.5545,-5.5577,-5.5531,-5.5692,-5.5656,-5.5667,-5.5668,-5.568,-5.569,-5.568,-5.5508,0,0,0,0,0,-5.5014,-5.5082,-5.5145,-5.5231,-5.5259,-5.5301,-5.5341,-5.5355,-5.5412,-5.5435,-5.5477,-5.5531,-5.5597,-5.564,-5.5705,-5.5809,-5.5824,-5.5854,-5.5864,-5.5871,-5.5881,-5.594,-5.5954,-5.58,-5.58,-5.58,0,0,-5.5045,-5.5095,-5.5136,-5.5235,-5.5279,-5.5348,-5.532,-5.5394,-5.5446,-5.5445,-5.5537,-5.557,-5.5632,-5.5732,-5.5778,-5.5761,-5.5927,-5.588,-5.5885,-5.5891,-5.5948,-5.5963,-5.5975,-5.5805,-5.5804,-5.5804,0,0,-5.5137,-5.5182,-5.526,-5.5305,-5.5373,-5.5401,-5.542,-5.5487,-5.551,-5.5603,-5.5604,-5.5665,-5.5779,-5.5823,-5.5861,-5.5973,-5.5969,-5.5992,-5.6042,-5.6099,-5.6111,-5.6121,-5.6162,-5.6176,-5.6002,-5.6002,-5.6002,0,-5.5167,-5.5273,-5.5299,-5.5375,-5.5418,-5.5423,-5.5501,-5.5543,-5.5628,-5.5657,-5.5638,-5.5782,-5.5824,-5.5935,-5.5963,-5.5993,-5.6014,-5.5985,-5.6107,-5.6118,-5.6129,-5.6168,-5.6183,-5.6004,-5.6004,-5.6004,-5.6004,0,-5.5307,-5.5381,-5.5435,-5.5519,-5.5568,-5.5645,-5.5682,-5.5728,-5.5738,-5.5768,-5.5863,-5.5914,-5.5989,-5.6016,-5.6025,-5.6129,-5.6117,-5.6102,-5.6066,-5.6145,-5.6183,-5.6198,-5.6008,-5.6007,-5.6006,-5.6006,0,0,-5.541,-5.5509,-5.5529,-5.5568,-5.5644,-5.57,-5.5777,-5.5853,-5.5893,-5.5951,-5.6016,-5.6113,-5.6101,-5.6143,-5.6158,-5.6208,-5.6294,-5.6187,-5.6189,-5.6206,-5.6412,-5.6424,-5.6441,-5.6293,-5.6296,-5.6298,-5.6408,0,-5.5511,-5.565,-5.5676,-5.5796,-5.5864,-5.5871,-5.5937,-5.5991,-5.6021,-5.6082,-5.6115,-5.6184,-5.6162,-5.6188,-5.6237,-5.6273,-5.6336,-5.6265,-5.6353,-5.6355,-5.6338,-5.646,-5.6472,-5.6573,-5.6422,-5.6425,-5.6426,0,-5.5648,-5.5712,-5.584,-5.5908,-5.5938,-5.5998,-5.607,-5.6129,-5.619,-5.6208,-5.6257,-5.6267,-5.6346,-5.6306,-5.6416,-5.6367,-5.6404,-5.6427,-5.6432,-5.6441,-5.6396,-5.6473,-5.6605,-5.6621,-5.6449,-5.6447,-5.6446,0,-5.5711,-5.583,-5.5922,-5.5955,-5.6037,-5.6079,-5.6115,-5.6173,-5.6217,-5.628,-5.6309,-5.6379,-5.6417,-5.6471,-5.6499,-5.6467,-5.6607,-5.6569,-5.6624,-5.6623,-5.6653,-5.6651,-5.6794,-5.6676,-5.6676,-5.6675,-5.6675,0,-5.5822,-5.59,-5.5952,-5.6008,-5.6096,-5.6125,-5.621,-5.6245,-5.6297,-5.636,-5.6369,-5.6427,-5.646,-5.6523,-5.6545,-5.6633,-5.665,-5.6667,-5.6672,-5.6666,-5.6664,-5.6691,-5.6685,-5.6679,-5.6678,-5.6678,-5.6677,0,-5.5908,-5.5946,-5.6047,-5.6117,-5.6136,-5.6198,-5.6257,-5.6312,-5.6343,-5.6422,-5.6442,-5.649,-5.6565,-5.6598,-5.6689,-5.6704,-5.6805,-5.6804,-5.6785,-5.6787,-5.684,-5.6835,-5.7006,-5.703,-5.6895,-5.6897,-5.6898,0,-5.5976,-5.6037,-5.6114,-5.6158,-5.6196,-5.6266,-5.6312,-5.6343,-5.639,-5.6465,-5.6511,-5.6587,-5.6649,-5.6768,-5.681,-5.688,-5.6882,-5.6937,-5.6892,-5.6886,-5.6884,-5.688,-5.6887,-5.6945,-5.6946,-5.6947,-5.6948,0,-5.6094,-5.611,-5.6178,-5.6252,-5.6308,-5.6367,-5.6425,-5.646,-5.65,-5.6552,-5.6631,-5.6679,-5.6774,-5.6849,-5.6923,-5.6958,-5.696,-5.6962,-5.6979,-5.6974,-5.6961,-5.697,-5.6808,-5.6958,-5.6957,-5.6956,-5.6956,-5.6955,-5.6174,-5.6229,-5.6293,-5.6367,-5.6415,-5.647,-5.6525,-5.6564,-5.663,-5.6711,-5.6725,-5.6808,-5.6868,-5.6967,-5.7006,-5.707,-5.7057,-5.708,-5.7086,-5.7092,-5.7096,-5.6951,-5.7084,-5.7083,-5.7083,-5.7083,-5.7083,0,-5.6293,-5.6335,-5.6404,-5.6486,-5.6545,-5.6544,-5.6609,-5.6658,-5.6732,-5.6788,-5.685,-5.694,-5.7013,-5.7062,-5.7135,-5.7178,-5.7181,-5.7196,-5.7194,-5.7202,-5.7103,-5.7082,-5.7193,-5.7193,-5.7193,-5.7193,-5.7193,-5.7193,-5.6362,-5.6455,-5.6479,-5.6596,-5.6637,-5.6721,-5.6758,-5.6808,-5.6854,-5.6955,-5.7016,-5.7048,-5.7101,-5.718,-5.7247,-5.7259,-5.7286,-5.7302,-5.7314,-5.722,-5.7209,-5.7198,-5.7178,-5.7308,-5.7308,-5.7407,-5.7408,-5.7409]}]]